Location: Chamorga
(28.5688°N, 16.1609°W)
Time: 17:26:13
(UTC+00:00)

Daily predictions for brighter satellites

Satellite Brightness Start Highest point End
(mag) Time Altitude Azimuth Time Altitude Azimuth Time Altitude Azimuth
Cosmos 2263 Rocket 3.4 18:56:29 10° SSE 19:00:29 20° E 19:04:28 10° NE
Mugunghwa Rocket 4.2 18:56:37 10° W 19:02:59 77° S 19:09:51 10° E
YAOGAN 6 2.8 18:59:48 10° SSE 19:03:21 48° ENE 19:06:54 10° N
CZ-4 R/B 2.3 19:00:19 10° SE 19:03:43 27° ENE 19:07:11 10° NNE
Cosmos 1959 Rocket 4.5 18:57:50 10° S 19:03:58 73° E 19:10:05 10° N
Cosmos 2227 Rocket 4.1 19:00:57 10° WSW 19:05:47 29° WNW 19:10:37 10° N
NOSS 3-2 (A) 4.3 19:01:32 10° SSE 19:05:52 24° ESE 19:10:25 10° ENE
Cosmos 1980 4.1 19:00:22 10° NNW 19:06:03 74° WSW 19:11:41 10° S
Cosmos 1328 3.8 19:04:04 10° S 19:08:04 90° E 19:12:05 10° N
GPS 2-05 Rocket1 1.9 19:13:11 10° WSW 19:15:42 84° SSE 19:17:47 14° ENE
ATLAS CENTAUR R/B 3.1 19:14:44 10° NNE 19:16:00 11° NE 19:16:35 11° ENE
NOAA 12 4.4 19:12:12 10° S 19:17:23 71° WSW 19:22:38 10° NNW
Cosmos 2366 rocket 4.1 19:14:42 10° S 19:20:53 83° W 19:27:10 10° N
FengYun 1-2 T 4.2 19:15:35 10° SSE 19:21:10 73° ENE 19:26:48 10° N
USA 116 3.1 19:20:25 10° NNE 19:23:29 65° ESE 19:26:40 10° S
USA 234 3.6 19:20:54 10° ESE 19:26:59 43° NE 19:33:04 10° NNW
Okean-O 3.1 19:23:10 10° S 19:27:33 67° W 19:31:57 10° NNW
OAO 3 Rocket 3.1 19:23:59 10° WSW 19:28:38 84° NNW 19:32:13 17° ENE
Stardust Del rocket 4.4 19:26:24 10° SW 19:28:51 21° S 19:30:39 11° SE
Cosmos 2221 3.6 19:29:42 10° NNE 19:33:05 22° E 19:36:27 10° SE
Cosmos 2056 Rocket 4.3 19:29:42 10° SSE 19:34:09 29° E 19:37:45 14° NE
CSL-04 Debris 4.3 19:29:03 10° SSE 19:34:13 49° ENE 19:39:23 10° N
Cosmos-2242 4.3 19:35:31 10° NNW 19:39:34 43° W 19:43:35 10° SSW
Cosmos 1356 Rocket 3.5 19:36:18 10° N 19:40:18 52° E 19:44:21 10° SSE
USA 238 DEB 3.6 19:38:42 10° SSW 19:45:14 68° ESE 19:51:29 12° NE
USA 238 3.6 19:38:51 10° SSW 19:45:22 67° ESE 19:51:32 12° NE
Atlas 2A Centaur Rocket 3.1 19:36:24 10° WSW 19:46:09 45° S 19:48:06 22° ESE
YAOGAN 1 2.4 19:45:52 10° SSE 19:50:10 84° ENE 19:54:30 10° N
ADEOS Rocket 3.4 19:45:07 10° NNE 19:52:13 68° ESE 19:59:49 10° S
CSL-04 Rocket 3.6 19:49:03 10° SSE 19:54:30 79° ENE 20:00:03 10° N
SWIFT 4.1 19:52:23 10° WSW 19:55:50 25° S 19:58:17 15° SE
Cosmos 1939 Rocket 2.6 19:54:45 10° SSE 19:58:37 79° ENE 20:02:34 10° N
Cosmos 1455 4.5 19:55:55 10° NNW 19:59:07 26° W 20:02:17 10° SSW
Cosmos 1727 Rocket 4.0 19:54:08 10° N 20:00:19 86° W 20:06:29 10° S
CZ-2D R/B 3.1 19:58:33 10° SSE 20:02:21 90° W 20:06:12 10° N
Orbus 7S 3.9 20:01:26 10° W 20:04:54 35° SSW 20:05:35 29° SSE
Cosmos 1437 3.1 20:06:32 10° S 20:08:48 48° S 20:08:48 48° S
Cosmos 2251 Rocket 3.9 20:04:41 10° NNW 20:09:58 67° WSW 20:15:15 10° S
Cosmos 2058 2.8 20:06:11 10° S 20:10:15 63° E 20:11:04 50° NE
FUSE 4.4 20:06:06 10° W 20:11:19 54° S 20:13:30 33° SE
CCE 1 Rocket 3.6 20:10:48 10° WSW 20:15:36 57° SSE 20:16:07 52° SE
In-Cosmos 22 Rocket 4.1 20:12:23 10° S 20:18:04 66° E 20:21:32 24° NNE
SL-16 R/B 3.6 20:26:39 10° NW 20:31:49 37° WSW 20:36:57 10° S
OAO 2 Rocket 3.6 20:29:20 10° W 20:34:08 52° NNW 20:34:15 52° N
ATLAS 3B R/B 3.0 20:28:14 10° S 20:33:54 42° SE 20:33:54 42° SE
IUS-7 SRM-1 4.3 20:32:56 10° W 20:36:28 27° SW 20:36:28 27° SW
NOSS 3-2 (C) 3.1 20:32:34 10° SSW 20:38:04 86° WNW 20:39:15 59° NNE
CZ-4 R/B 4.5 20:36:16 10° SW 20:38:41 15° W 20:41:08 10° WNW
Cosmos 1605 Rocket 4.0 20:33:09 10° S 20:38:45 59° ESE 20:38:45 59° ESE
Delta 2 Rocket 4.0 20:37:03 10° WSW 20:42:24 69° S 20:42:24 69° S
Atlas Centaur 2 1.9 20:38:27 10° W 20:42:46 74° NW 20:42:46 74° NW
DELTA 2 R/B (1) 4.0 20:37:46 10° NW 20:42:28 48° N 20:42:28 48° N
Cosmos 2263 Rocket 3.5 20:38:56 10° SW 20:44:01 37° WNW 20:48:05 15° N
FALCON 9 R/B 2.8 20:30:21 10° WSW 20:48:14 73° NNW 20:49:28 60° NE
CENTAUR R/B 2.2 20:46:37 10° SSW 20:51:51 82° SSW 20:51:51 82° SSW
ATLAS CENTAUR R/B 3.6 20:51:37 10° NW 20:52:53 18° WNW 20:52:53 18° WNW
Ariane Rocket 3.5 20:50:56 10° S 20:55:53 57° W 21:00:53 10° NNW
Mugunghwa Rocket 4.3 20:52:08 10° W 20:58:40 60° SSW 20:59:14 59° S
USA 234 4.3 21:04:38 14° S 21:09:52 40° SW 21:15:57 10° WNW
H-2A R/B 4.2 19:53:06 10° SW 21:23:08 53° S 21:24:20 51° SSE
CZ-3C R/B 3.8 21:15:48 10° W 21:25:33 21° SW 21:27:03 19° SSW
